[[{"header":{"parameterUnit":"m.s-1","parameterCategory":1,"la1":30.2991,"la2":30.254,"lo1":-89.0895,"lo2":-89.0444,"dy":0.0017,"dx":0.0017,"nx":28,"ny":28,"refTime":"2024-12-21T03:00:00:Z","depth":0,"parameterNumber":2,"parameterNumberName":"U-component_of_WINDS"},"data":[0,0,0,0,0,0,0,0,0,0,0,0,0,0,0,0,0,0,0,0,0,0,0,0,0,0,0,0,0,0,0,0,0,0,0,0,0,0,0,0,0,0,0,0,0,0,0,0,0,0,0,0,0,0,0,0,0,0,-0.2855,-0.2855,0,-0.2859,-0.2859,-0.2859,-0.2841,-0.284,-0.284,-0.2839,-0.2845,-0.2845,-0.2846,0,0,0,0,0,0,0,0,0,0,0,0,0,-0.2832,-0.2833,-0.2855,-0.2855,-0.2855,-0.2859,-0.2859,-0.2859,-0.2841,-0.284,-0.284,-0.2839,-0.2844,-0.2845,-0.2846,0,0,0,0,0,0,0,0,0,0,0,0,0,-0.284,-0.2833,-0.2855,-0.2847,-0.2846,-0.2859,-0.2859,-0.2859,-0.2841,-0.284,-0.284,-0.2839,-0.2844,-0.2845,-0.2846,-0.2868,0,0,-0.2849,-0.2849,0,0,0,0,0,0,0,0,-0.284,-0.2841,-0.2848,-0.2847,-0.2846,-0.2849,-0.2853,-0.2862,-0.2841,-0.2843,-0.2839,-0.2838,-0.2847,-0.2847,-0.285,-0.2868,-0.2868,-0.2849,-0.285,-0.285,-0.285,0,0,0,0,0,0,0,-0.2839,-0.2841,-0.2857,-0.2848,-0.2847,-0.2843,-0.2843,-0.2855,-0.2849,-0.2843,-0.2841,-0.2842,-0.2846,-0.2849,-0.285,-0.2869,-0.2849,-0.285,-0.2851,-0.2851,-0.2905,-0.2905,0,0,0,0,0,0,-0.284,-0.284,-0.2857,-0.2857,-0.2841,-0.2844,-0.2844,-0.2849,-0.2849,-0.2848,-0.2843,-0.2841,-0.2848,-0.2849,-0.285,-0.2876,-0.285,-0.2851,-0.2852,-0.2904,-0.2905,-0.2906,0,0,0,0,0,0,-0.2839,-0.2841,-0.2856,-0.2848,-0.285,-0.2845,-0.285,-0.2849,-0.2852,-0.2849,-0.2848,-0.2847,-0.2847,-0.2849,-0.2863,-0.2876,-0.2851,-0.2852,-0.2903,-0.2904,-0.2905,-0.2928,0,0,0,0,0,0,-0.2839,-0.2841,-0.2849,-0.2848,-0.285,-0.287,-0.2851,-0.285,-0.2854,-0.2852,-0.2853,-0.2852,-0.2847,-0.2862,-0.2864,-0.2877,-0.2853,-0.2902,-0.2903,-0.2905,-0.2926,-0.293,-0.2933,0,0,0,0,0,-0.2838,-0.2856,-0.285,-0.2852,-0.286,-0.287,-0.2872,-0.2865,-0.2855,-0.2863,-0.2861,-0.2852,-0.2874,-0.2864,-0.2866,-0.2879,-0.2901,-0.2903,-0.2905,-0.2924,-0.2929,-0.2933,0,0,0,0,0,0,-0.2859,-0.2856,-0.2849,-0.2867,-0.2869,-0.2867,-0.2878,-0.287,-0.2875,-0.2873,-0.2865,-0.2865,-0.2882,-0.2881,-0.287,-0.29,-0.2886,-0.2888,-0.29,-0.2904,-0.2907,-0.2908,-0.2854,0,0,0,0,0,-0.2866,-0.2874,-0.2871,-0.2887,-0.2888,-0.2883,-0.2887,-0.2881,-0.2883,-0.2884,-0.2883,-0.2886,-0.2893,-0.2898,-0.2905,-0.2925,-0.2925,-0.2935,-0.2938,-0.2941,-0.2944,-0.2955,-0.2959,-0.2912,-0.2912,-0.2912,0,0,-0.288,-0.2879,-0.2885,-0.2891,-0.2892,-0.2901,-0.2884,-0.2894,-0.2901,-0.2886,-0.29,-0.2899,-0.2901,-0.2919,-0.2927,-0.2919,-0.2957,-0.2944,-0.2946,-0.2947,-0.2957,-0.2962,-0.2966,-0.2913,-0.2913,-0.2913,0,0,-0.2911,-0.2911,-0.2925,-0.2925,-0.2927,-0.2923,-0.2926,-0.2925,-0.2924,-0.2937,-0.2926,-0.2934,-0.2947,-0.2949,-0.2952,-0.2982,-0.2974,-0.2984,-0.3003,-0.3013,-0.3017,-0.302,-0.3032,-0.3036,-0.2986,-0.2986,-0.2986,0,-0.2929,-0.2942,-0.2933,-0.2944,-0.2947,-0.2933,-0.2947,-0.2948,-0.2952,-0.2954,-0.2946,-0.2961,-0.2962,-0.298,-0.2987,-0.2989,-0.2993,-0.2985,-0.3017,-0.302,-0.3023,-0.3034,-0.3038,-0.2988,-0.2988,-0.2987,-0.2987,0,-0.2964,-0.2973,-0.2984,-0.2987,-0.2991,-0.3003,-0.2996,-0.3001,-0.2995,-0.2992,-0.3006,-0.3006,-0.3012,-0.3015,-0.301,-0.3033,-0.3028,-0.3018,-0.3004,-0.3029,-0.3039,-0.3043,-0.299,-0.2989,-0.2989,-0.2988,0,0,-0.301,-0.3007,-0.3011,-0.3012,-0.3012,-0.3019,-0.303,-0.3036,-0.3041,-0.3043,-0.3053,-0.3063,-0.3054,-0.3057,-0.3051,-0.306,-0.3085,-0.3049,-0.3049,-0.3057,-0.311,-0.3118,-0.3123,-0.3079,-0.3079,-0.308,-0.311,0,-0.3041,-0.306,-0.3052,-0.3072,-0.308,-0.3066,-0.3076,-0.3077,-0.3074,-0.3081,-0.3078,-0.3086,-0.3072,-0.3074,-0.3082,-0.308,-0.3095,-0.3077,-0.3088,-0.3089,-0.309,-0.3128,-0.3137,-0.3166,-0.3114,-0.3115,-0.3115,0,-0.308,-0.3083,-0.3104,-0.3102,-0.3105,-0.3114,-0.3118,-0.3124,-0.3125,-0.3122,-0.3125,-0.3117,-0.3128,-0.3112,-0.3128,-0.3116,-0.3119,-0.3119,-0.3119,-0.3121,-0.3105,-0.3133,-0.3175,-0.318,-0.3121,-0.3121,-0.312,0,-0.3112,-0.3122,-0.3136,-0.3137,-0.3134,-0.3141,-0.3141,-0.314,-0.3144,-0.3147,-0.315,-0.3154,-0.3157,-0.3161,-0.3155,-0.3144,-0.3171,-0.3155,-0.317,-0.317,-0.3178,-0.3178,-0.3223,-0.3178,-0.3178,-0.3178,-0.3178,0,-0.3148,-0.3162,-0.315,-0.3159,-0.3174,-0.3164,-0.3179,-0.3176,-0.3176,-0.3184,-0.3172,-0.318,-0.317,-0.3177,-0.3171,-0.3185,-0.3186,-0.3185,-0.3184,-0.3187,-0.3187,-0.319,-0.3188,-0.3179,-0.3179,-0.3178,-0.3178,0,-0.3188,-0.3181,-0.3195,-0.3191,-0.319,-0.3201,-0.3198,-0.3206,-0.3201,-0.3212,-0.3213,-0.3207,-0.3214,-0.3207,-0.3214,-0.3211,-0.323,-0.3225,-0.3229,-0.3229,-0.3244,-0.3243,-0.3294,-0.33,-0.325,-0.3251,-0.3251,0,-0.3213,-0.3223,-0.3219,-0.3223,-0.3223,-0.323,-0.3234,-0.3223,-0.3228,-0.3228,-0.3236,-0.3242,-0.3247,-0.326,-0.3256,-0.3261,-0.3257,-0.3274,-0.3258,-0.3261,-0.3258,-0.3258,-0.326,-0.3278,-0.3279,-0.3279,-0.328,0,-0.3257,-0.3252,-0.3257,-0.3261,-0.3265,-0.3268,-0.3269,-0.3273,-0.3263,-0.3268,-0.3275,-0.3279,-0.3286,-0.3292,-0.3296,-0.3295,-0.3286,-0.3284,-0.3288,-0.3293,-0.3295,-0.3295,-0.324,-0.3284,-0.3283,-0.3283,-0.3283,-0.3283,-0.329,-0.3298,-0.3297,-0.3303,-0.3303,-0.3304,-0.3311,-0.3307,-0.3313,-0.3318,-0.3311,-0.332,-0.332,-0.3324,-0.3324,-0.3331,-0.3324,-0.3329,-0.3331,-0.3333,-0.3335,-0.3293,-0.3332,-0.3331,-0.3331,-0.3331,-0.3331,0,-0.3334,-0.3332,-0.3338,-0.334,-0.3345,-0.3334,-0.3335,-0.334,-0.3348,-0.3348,-0.3352,-0.336,-0.3366,-0.3362,-0.3367,-0.3373,-0.3369,-0.3375,-0.3375,-0.3376,-0.3341,-0.3338,-0.3379,-0.3379,-0.3379,-0.3379,-0.3378,-0.3378,-0.3358,-0.3371,-0.3367,-0.338,-0.3378,-0.3386,-0.3387,-0.3389,-0.3389,-0.3398,-0.3403,-0.34,-0.3398,-0.3403,-0.3408,-0.3406,-0.3409,-0.3417,-0.3414,-0.3383,-0.3378,-0.3374,-0.337,-0.3417,-0.3417,-0.3448,-0.3448,-0.3449]},{"header":{"parameterUnit":"m.s-1","parameterCategory":1,"la1":30.2991,"la2":30.254,"lo1":-89.0895,"lo2":-89.0444,"dy":0.0017,"dx":0.0017,"nx":28,"ny":28,"refTime":"2024-12-21T03:00:00:Z","depth":0,"parameterNumber":3,"parameterNumberName":"V-component_of_WINDS"},"data":[0,0,0,0,0,0,0,0,0,0,0,0,0,0,0,0,0,0,0,0,0,0,0,0,0,0,0,0,0,0,0,0,0,0,0,0,0,0,0,0,0,0,0,0,0,0,0,0,0,0,0,0,0,0,0,0,0,0,-5.2502,-5.2503,0,-5.2572,-5.2572,-5.2573,-5.2539,-5.2537,-5.2535,-5.2533,-5.2599,-5.2603,-5.2606,0,0,0,0,0,0,0,0,0,0,0,0,0,-5.2336,-5.2339,-5.2502,-5.2503,-5.2504,-5.2572,-5.2572,-5.2573,-5.2539,-5.2537,-5.2535,-5.2532,-5.2598,-5.2602,-5.2606,0,0,0,0,0,0,0,0,0,0,0,0,0,-5.2407,-5.234,-5.2502,-5.2495,-5.2495,-5.2571,-5.2573,-5.2574,-5.2539,-5.2537,-5.2534,-5.2531,-5.2597,-5.2602,-5.2607,-5.2693,0,0,-5.2623,-5.2625,0,0,0,0,0,0,0,0,-5.2403,-5.2413,-5.2495,-5.2496,-5.2496,-5.2544,-5.2538,-5.2613,-5.254,-5.2522,-5.2533,-5.253,-5.2583,-5.2589,-5.2608,-5.2696,-5.2699,-5.2623,-5.2626,-5.2629,-5.263,0,0,0,0,0,0,0,-5.2398,-5.241,-5.253,-5.2496,-5.2497,-5.2487,-5.2494,-5.2552,-5.2567,-5.2524,-5.2521,-5.253,-5.2582,-5.2603,-5.2609,-5.27,-5.2623,-5.2628,-5.2631,-5.2633,-5.2863,-5.2865,0,0,0,0,0,0,-5.2394,-5.2406,-5.2527,-5.2532,-5.2442,-5.2492,-5.25,-5.2531,-5.2566,-5.2569,-5.2533,-5.2529,-5.2595,-5.2603,-5.2611,-5.2715,-5.2628,-5.2633,-5.2636,-5.286,-5.2863,-5.2867,0,0,0,0,0,0,-5.2391,-5.2405,-5.2525,-5.2468,-5.2483,-5.2498,-5.2533,-5.2534,-5.2554,-5.2573,-5.2575,-5.2551,-5.2594,-5.2604,-5.2673,-5.2717,-5.2636,-5.264,-5.2856,-5.2861,-5.2865,-5.2923,0,0,0,0,0,0,-5.2386,-5.2404,-5.2438,-5.2469,-5.2486,-5.2587,-5.2536,-5.2537,-5.2564,-5.2559,-5.2591,-5.2593,-5.2592,-5.2666,-5.2678,-5.2722,-5.2644,-5.2852,-5.2858,-5.2863,-5.2917,-5.2929,-5.2939,0,0,0,0,0,-5.238,-5.245,-5.244,-5.2455,-5.2529,-5.259,-5.2599,-5.2598,-5.2568,-5.2601,-5.2613,-5.2592,-5.271,-5.2673,-5.2687,-5.2733,-5.2849,-5.2856,-5.2863,-5.2912,-5.2926,-5.2938,0,0,0,0,0,0,-5.2421,-5.2454,-5.2443,-5.2525,-5.2555,-5.2584,-5.2626,-5.2613,-5.265,-5.2644,-5.2639,-5.2647,-5.2719,-5.2733,-5.2692,-5.2819,-5.2775,-5.2785,-5.2807,-5.2821,-5.2832,-5.2827,-5.2649,0,0,0,0,0,-5.244,-5.2488,-5.2514,-5.2584,-5.2599,-5.261,-5.2637,-5.2634,-5.2664,-5.2675,-5.2692,-5.2721,-5.2765,-5.2793,-5.2834,-5.2918,-5.2925,-5.2957,-5.2968,-5.2977,-5.2985,-5.3032,-5.3047,-5.2889,-5.2889,-5.2889,0,0,-5.2478,-5.2503,-5.2533,-5.2592,-5.2615,-5.2665,-5.2621,-5.2674,-5.2711,-5.2683,-5.2751,-5.2764,-5.2796,-5.2874,-5.2908,-5.2887,-5.3031,-5.2985,-5.2992,-5.2996,-5.3041,-5.3056,-5.3069,-5.2893,-5.2893,-5.2892,0,0,-5.2575,-5.2598,-5.266,-5.2684,-5.272,-5.2727,-5.2742,-5.2773,-5.2781,-5.285,-5.283,-5.2872,-5.2947,-5.2971,-5.2993,-5.31,-5.3083,-5.3113,-5.317,-5.3215,-5.3228,-5.3239,-5.3278,-5.3292,-5.3122,-5.3122,-5.3122,0,-5.2618,-5.2693,-5.2692,-5.2749,-5.2775,-5.2755,-5.2817,-5.284,-5.2886,-5.2905,-5.2881,-5.2975,-5.2995,-5.3079,-5.3105,-5.3123,-5.314,-5.311,-5.3227,-5.3238,-5.3248,-5.3285,-5.33,-5.3125,-5.3125,-5.3125,-5.3124,0,-5.2745,-5.2798,-5.2843,-5.2892,-5.2923,-5.2982,-5.2989,-5.3021,-5.3015,-5.3024,-5.3094,-5.3117,-5.3163,-5.3182,-5.3176,-5.3266,-5.3252,-5.3227,-5.3183,-5.3267,-5.3302,-5.3316,-5.3131,-5.3129,-5.3128,-5.3127,0,0,-5.2869,-5.2918,-5.2934,-5.2957,-5.2995,-5.3035,-5.3093,-5.314,-5.3168,-5.32,-5.3249,-5.3313,-5.3292,-5.3316,-5.3313,-5.3353,-5.3437,-5.3323,-5.3324,-5.3345,-5.3539,-5.3558,-5.3574,-5.3426,-5.3429,-5.3431,-5.3536,0,-5.2969,-5.3072,-5.3074,-5.3168,-5.3217,-5.3198,-5.3248,-5.3277,-5.3287,-5.3329,-5.3339,-5.3386,-5.3353,-5.3368,-5.3407,-5.3419,-5.3476,-5.3411,-5.347,-5.3472,-5.3464,-5.3593,-5.3613,-5.3711,-5.355,-5.3552,-5.3554,0,-5.31,-5.314,-5.324,-5.3273,-5.3294,-5.3339,-5.3383,-5.3423,-5.3455,-5.346,-5.3489,-5.3479,-5.3537,-5.3491,-5.3571,-5.3527,-5.3551,-5.356,-5.3564,-5.357,-5.3519,-5.3603,-5.3743,-5.3758,-5.3575,-5.3573,-5.3572,0,-5.3182,-5.326,-5.3331,-5.335,-5.339,-5.3423,-5.3441,-5.347,-5.3499,-5.3536,-5.3555,-5.3598,-5.3622,-5.3655,-5.3657,-5.3623,-5.3738,-5.3692,-5.3743,-5.3743,-5.3769,-5.3767,-5.3915,-5.3783,-5.3782,-5.3782,-5.3782,0,-5.3294,-5.3356,-5.3368,-5.3412,-5.3481,-5.3481,-5.3549,-5.3564,-5.3591,-5.3636,-5.3621,-5.3664,-5.3664,-5.3707,-5.3708,-5.3775,-5.3785,-5.379,-5.379,-5.3792,-5.3792,-5.3809,-5.3802,-5.3786,-5.3785,-5.3784,-5.3784,0,-5.3397,-5.3408,-5.3484,-5.3517,-5.3526,-5.3576,-5.3603,-5.3644,-5.3653,-5.3711,-5.3724,-5.3739,-5.3789,-5.3794,-5.3851,-5.3852,-5.3933,-5.3925,-5.3923,-5.3922,-5.3974,-5.397,-5.4139,-5.4161,-5.4013,-5.4014,-5.4015,0,-5.3469,-5.3517,-5.3556,-5.3586,-5.3607,-5.3655,-5.3685,-5.3687,-5.3719,-5.376,-5.3796,-5.3845,-5.3884,-5.3965,-5.3979,-5.4023,-5.4017,-5.4073,-5.4023,-5.4024,-5.4019,-5.4017,-5.4022,-5.4083,-5.4084,-5.4086,-5.4087,0,-5.3595,-5.3599,-5.3644,-5.3691,-5.3728,-5.3764,-5.3799,-5.3824,-5.383,-5.3866,-5.3918,-5.3949,-5.4009,-5.4058,-5.4102,-5.4118,-5.4104,-5.4103,-5.4117,-5.412,-5.4118,-5.4121,-5.3951,-5.4099,-5.4098,-5.4097,-5.4096,-5.4096,-5.3686,-5.3728,-5.3763,-5.3814,-5.384,-5.3873,-5.3914,-5.393,-5.3974,-5.4025,-5.4022,-5.408,-5.4111,-5.4169,-5.4189,-5.4233,-5.4214,-5.4235,-5.424,-5.4246,-5.4252,-5.411,-5.4241,-5.424,-5.424,-5.424,-5.424,0,-5.3813,-5.3835,-5.3881,-5.3931,-5.3971,-5.3956,-5.3993,-5.4027,-5.4079,-5.411,-5.415,-5.4211,-5.4258,-5.4277,-5.4324,-5.4356,-5.435,-5.4368,-5.4366,-5.437,-5.4265,-5.4249,-5.4372,-5.4372,-5.4372,-5.4372,-5.4371,-5.4371,-5.3884,-5.3955,-5.3963,-5.4048,-5.4068,-5.4127,-5.415,-5.418,-5.4205,-5.4274,-5.4314,-5.4327,-5.4353,-5.4402,-5.4444,-5.4449,-5.4467,-5.4488,-5.4489,-5.4391,-5.4377,-5.4365,-5.4349,-5.4491,-5.4491,-5.4591,-5.4591,-5.4592]}]]